ROT402V LFMN-LROP

Flight info

Callsign ROT402V
Flight time 1h 54m
Altitude 18000
Route BASIP Y15 EGHIN/N0445F360 DCT MIVKI DCT TIPNI DCT BAXON/N0443F370 DCT PALEZ DCT OBISA DCT VELIP DCT UBOGU DCT TOSVI
Aircraft B737/M-SDE2E3FGHIRWXY/LB1

Departure

Time 2026-05-06 15:13
Airport Nice-Côte d'Azur Airport (LFMN)

Arrival

Time 2026-05-06 17:07
Airport Bucharest Henri Coandă International Airport (LROP)
Time Latitude Longitude Altitude Speed Heading
2026-05-06 14:44 43.66119 7.20687 20 ft 0 kts 261°
2026-05-06 15:02 43.66120 7.20690 20 ft 3 kts 261°
2026-05-06 15:02 43.66124 7.20726 22 ft 4 kts 261°
2026-05-06 15:02 43.66127 7.20755 24 ft 4 kts 250°
2026-05-06 15:03 43.66141 7.20781 20 ft 4 kts 196°
2026-05-06 15:03 43.66165 7.20782 20 ft 4 kts 171°
2026-05-06 15:03 43.66169 7.20781 20 ft 1 kts 171°
2026-05-06 15:06 43.66167 7.20781 20 ft 1 kts 171°
2026-05-06 15:06 43.66151 7.20785 20 ft 5 kts 170°
2026-05-06 15:07 43.66106 7.20797 20 ft 7 kts 169°
2026-05-06 15:07 43.66051 7.20807 22 ft 9 kts 172°
2026-05-06 15:07 43.65986 7.20821 21 ft 10 kts 170°
2026-05-06 15:07 43.65913 7.20838 20 ft 11 kts 169°
2026-05-06 15:08 43.65833 7.20854 20 ft 12 kts 168°
2026-05-06 15:08 43.65807 7.20942 21 ft 13 kts 55°
2026-05-06 15:08 43.65874 7.21036 20 ft 15 kts 44°
2026-05-06 15:08 43.65952 7.21145 20 ft 17 kts 46°
2026-05-06 15:09 43.66042 7.21267 20 ft 19 kts 45°
2026-05-06 15:09 43.66142 7.21404 20 ft 21 kts 45°
2026-05-06 15:09 43.66251 7.21553 20 ft 22 kts 44°
2026-05-06 15:09 43.66350 7.21689 20 ft 18 kts 44°
2026-05-06 15:10 43.66440 7.21817 20 ft 19 kts 45°
2026-05-06 15:10 43.66538 7.21946 20 ft 19 kts 45°
2026-05-06 15:10 43.66635 7.22083 20 ft 21 kts 43°
2026-05-06 15:10 43.66739 7.22222 20 ft 20 kts 45°
2026-05-06 15:11 43.66817 7.22345 20 ft 17 kts 76°
2026-05-06 15:11 43.66758 7.22472 19 ft 16 kts 136°
2026-05-06 15:11 43.66683 7.22575 20 ft 12 kts 136°
2026-05-06 15:11 43.66631 7.22648 20 ft 11 kts 139°
2026-05-06 15:12 43.66583 7.22691 20 ft 8 kts 120°
2026-05-06 15:12 43.66549 7.22757 22 ft 9 kts 135°
2026-05-06 15:12 43.66499 7.22756 21 ft 0 kts 220°
2026-05-06 15:13 43.66323 7.22516 22 ft 71 kts 225°
2026-05-06 15:13 43.65823 7.21833 22 ft 129 kts 223°
2026-05-06 15:13 43.65096 7.20894 337 ft 149 kts 223°
2026-05-06 15:13 43.64357 7.19865 956 ft 156 kts 223°
2026-05-06 15:14 43.63568 7.18780 1567 ft 162 kts 223°
2026-05-06 15:14 43.62742 7.17652 1960 ft 183 kts 225°
2026-05-06 15:14 43.61745 7.16394 2135 ft 207 kts 214°
2026-05-06 15:14 43.60322 7.15740 2459 ft 227 kts 189°
2026-05-06 15:15 43.58711 7.16094 2865 ft 247 kts 160°
2026-05-06 15:15 43.57172 7.17233 3391 ft 256 kts 155°
2026-05-06 15:15 43.55713 7.18821 3644 ft 282 kts 129°
2026-05-06 15:15 43.54943 7.21334 4437 ft 286 kts 105°
2026-05-06 15:16 43.54443 7.24014 5256 ft 288 kts 105°
2026-05-06 15:16 43.53942 7.26693 6116 ft 292 kts 106°
2026-05-06 15:16 43.53512 7.29429 6883 ft 298 kts 93°
2026-05-06 15:16 43.53862 7.32234 7733 ft 297 kts 71°
2026-05-06 15:17 43.54572 7.34916 8656 ft 299 kts 69°
2026-05-06 15:17 43.55327 7.37653 9361 ft 309 kts 70°
2026-05-06 15:17 43.56090 7.40459 10146 ft 315 kts 70°
2026-05-06 15:17 43.57021 7.43290 10451 ft 339 kts 56°
2026-05-06 15:18 43.58501 7.45960 10744 ft 360 kts 50°
2026-05-06 15:18 43.60097 7.48605 11483 ft 364 kts 49°
2026-05-06 15:18 43.61721 7.51288 12343 ft 367 kts 49°
2026-05-06 15:18 43.63361 7.54033 13090 ft 373 kts 50°
2026-05-06 15:19 43.65008 7.56832 13871 ft 378 kts 50°
2026-05-06 15:19 43.66671 7.59687 14553 ft 385 kts 51°
2026-05-06 15:19 43.68364 7.62611 15134 ft 395 kts 51°
2026-05-06 15:19 43.70098 7.65612 15797 ft 402 kts 51°
2026-05-06 15:20 43.71859 7.68665 16493 ft 409 kts 51°
2026-05-06 15:20 43.73656 7.71778 17161 ft 416 kts 50°
2026-05-06 15:20 43.75523 7.74805 17766 ft 424 kts 47°
2026-05-06 15:20 43.77510 7.77859 17831 ft 428 kts 47°
2026-05-06 15:21 43.79498 7.80895 17843 ft 424 kts 47°
2026-05-06 15:21 43.81459 7.83955 17848 ft 424 kts 47°
2026-05-06 15:21 43.83410 7.87033 17844 ft 425 kts 48°
2026-05-06 15:21 43.85356 7.90116 17847 ft 426 kts 48°
2026-05-06 15:22 43.87311 7.93209 17831 ft 426 kts 48°
2026-05-06 15:22 43.89264 7.96298 17831 ft 426 kts 48°
2026-05-06 15:22 43.91223 7.99387 17821 ft 426 kts 48°
2026-05-06 15:22 43.93182 8.02469 17827 ft 427 kts 48°
2026-05-06 15:23 43.95150 8.05568 17824 ft 427 kts 48°
2026-05-06 15:23 43.97104 8.08650 17811 ft 424 kts 48°
2026-05-06 15:23 43.99052 8.11726 17837 ft 423 kts 47°
2026-05-06 15:23 44.00994 8.14797 17836 ft 423 kts 47°
2026-05-06 15:24 44.02929 8.17871 17830 ft 423 kts 50°
2026-05-06 15:24 44.04589 8.21237 17825 ft 422 kts 63°
2026-05-06 15:24 44.05745 8.24970 17841 ft 420 kts 74°
2026-05-06 15:24 44.06394 8.28915 17834 ft 418 kts 84°
2026-05-06 15:25 44.06793 8.32915 17834 ft 419 kts 86°
2026-05-06 15:25 44.07152 8.36895 17823 ft 420 kts 86°
2026-05-06 15:25 44.07510 8.40938 17830 ft 422 kts 86°
2026-05-06 15:25 44.07877 8.45017 18246 ft 429 kts 86°
2026-05-06 15:26 44.08256 8.49142 18954 ft 430 kts 86°
2026-05-06 15:26 44.08645 8.53277 19708 ft 432 kts 86°
2026-05-06 15:26 44.09040 8.57437 20352 ft 436 kts 86°
2026-05-06 15:26 44.09440 8.61642 20955 ft 441 kts 86°
2026-05-06 15:27 44.09845 8.65899 21607 ft 446 kts 86°
2026-05-06 15:27 44.10253 8.70190 22203 ft 450 kts 87°
2026-05-06 15:27 44.10664 8.74536 22766 ft 455 kts 87°
2026-05-06 15:27 44.11078 8.78923 23362 ft 459 kts 87°
2026-05-06 15:28 44.11490 8.83305 23864 ft 463 kts 88°
2026-05-06 15:28 44.11907 8.87766 24352 ft 467 kts 88°
2026-05-06 15:28 44.12326 8.92267 24838 ft 470 kts 88°
2026-05-06 15:28 44.12745 8.96792 25318 ft 474 kts 88°
2026-05-06 15:29 44.13167 9.01361 25779 ft 477 kts 88°
2026-05-06 15:29 44.13589 9.05960 26237 ft 481 kts 88°
2026-05-06 15:29 44.14013 9.10601 26666 ft 484 kts 88°
2026-05-06 15:29 44.14437 9.15250 27181 ft 485 kts 88°
2026-05-06 15:30 44.14861 9.19925 27636 ft 488 kts 88°
2026-05-06 15:30 44.15284 9.24627 28033 ft 492 kts 89°
2026-05-06 15:30 44.15710 9.29378 28418 ft 496 kts 89°
2026-05-06 15:30 44.16136 9.34150 28818 ft 499 kts 89°
2026-05-06 15:31 44.16564 9.38967 29226 ft 502 kts 89°
2026-05-06 15:31 44.16992 9.43809 29612 ft 505 kts 89°
2026-05-06 15:31 44.17421 9.48679 29937 ft 507 kts 89°
2026-05-06 15:32 44.18276 9.58436 30743 ft 508 kts 89°
2026-05-06 15:32 44.18695 9.63264 31079 ft 509 kts 89°
2026-05-06 15:32 44.19118 9.68162 31465 ft 509 kts 89°
2026-05-06 15:32 44.19539 9.73057 31916 ft 507 kts 89°
2026-05-06 15:33 44.19955 9.77921 32414 ft 504 kts 89°
2026-05-06 15:33 44.20368 9.82767 32885 ft 502 kts 89°
2026-05-06 15:33 44.20776 9.87601 33257 ft 501 kts 89°
2026-05-06 15:33 44.21179 9.92407 33638 ft 500 kts 89°
2026-05-06 15:34 44.21581 9.97225 34034 ft 499 kts 89°
2026-05-06 15:34 44.21981 10.02026 34367 ft 498 kts 89°
2026-05-06 15:34 44.22378 10.06820 34622 ft 499 kts 89°
2026-05-06 15:34 44.22761 10.11623 34888 ft 498 kts 89°
2026-05-06 15:35 44.23124 10.16428 35202 ft 497 kts 89°
2026-05-06 15:35 44.23477 10.21218 35517 ft 496 kts 89°
2026-05-06 15:35 44.23825 10.26000 35749 ft 496 kts 89°
2026-05-06 15:35 44.24173 10.30799 35938 ft 499 kts 89°
2026-05-06 15:36 44.24875 10.40483 35950 ft 502 kts 89°
2026-05-06 15:36 44.25575 10.50119 35952 ft 496 kts 89°
2026-05-06 15:37 44.26255 10.59614 35953 ft 494 kts 89°
2026-05-06 15:37 44.26928 10.69153 35957 ft 493 kts 89°
2026-05-06 15:38 44.27590 10.78647 35960 ft 493 kts 90°
2026-05-06 15:38 44.28247 10.88184 35963 ft 494 kts 90°
2026-05-06 15:39 44.28897 10.97740 35953 ft 495 kts 90°
2026-05-06 15:39 44.29540 11.07299 35945 ft 496 kts 90°
2026-05-06 15:40 44.30178 11.16892 35933 ft 497 kts 90°
2026-05-06 15:40 44.30797 11.26503 35894 ft 497 kts 90°
2026-05-06 15:41 44.31358 11.36136 35882 ft 496 kts 90°
2026-05-06 15:41 44.31896 11.45663 35894 ft 496 kts 90°
2026-05-06 15:42 44.32436 11.55284 35902 ft 497 kts 90°
2026-05-06 15:42 44.32973 11.64891 35927 ft 497 kts 90°
2026-05-06 15:43 44.33240 11.69724 36087 ft 499 kts 90°
2026-05-06 15:43 44.33417 11.72932 36239 ft 499 kts 90°
2026-05-06 15:43 44.33681 11.77759 36502 ft 498 kts 90°
2026-05-06 15:43 44.33943 11.82571 36812 ft 496 kts 90°
2026-05-06 15:44 44.34202 11.87385 36926 ft 499 kts 90°
2026-05-06 15:44 44.34459 11.92229 36907 ft 501 kts 90°
2026-05-06 15:44 44.34970 12.01908 36893 ft 497 kts 90°
2026-05-06 15:45 44.35468 12.11479 36892 ft 492 kts 90°
2026-05-06 15:45 44.35955 12.21014 36883 ft 490 kts 90°
2026-05-06 15:46 44.36430 12.30500 36886 ft 489 kts 90°
2026-05-06 15:46 44.36896 12.39960 36886 ft 488 kts 90°
2026-05-06 15:47 44.37355 12.49439 36888 ft 488 kts 90°
2026-05-06 15:47 44.37806 12.58908 36887 ft 489 kts 90°
2026-05-06 15:48 44.38251 12.68411 36892 ft 490 kts 90°
2026-05-06 15:48 44.38689 12.77945 36892 ft 491 kts 90°
2026-05-06 15:49 44.39120 12.87485 36885 ft 492 kts 90°
2026-05-06 15:49 44.39544 12.97044 36891 ft 493 kts 90°
2026-05-06 15:50 44.39957 13.06554 36899 ft 493 kts 90°
2026-05-06 15:50 44.40366 13.16132 36909 ft 494 kts 90°
2026-05-06 15:51 44.40767 13.25725 36899 ft 494 kts 90°
2026-05-06 15:51 44.41161 13.35337 36924 ft 494 kts 90°
2026-05-06 15:52 44.41547 13.44941 36924 ft 494 kts 90°
2026-05-06 15:52 44.42182 13.54533 36923 ft 496 kts 86°
2026-05-06 15:53 44.43049 13.64109 36920 ft 496 kts 85°
2026-05-06 15:53 44.43910 13.73679 36928 ft 495 kts 85°
2026-05-06 15:54 44.44722 13.83224 36930 ft 493 kts 86°
2026-05-06 15:54 44.45501 13.92690 36936 ft 492 kts 86°
2026-05-06 15:55 44.46273 14.02209 36912 ft 491 kts 86°
2026-05-06 15:55 44.47037 14.11703 36935 ft 490 kts 86°
2026-05-06 15:56 44.47793 14.21178 36945 ft 489 kts 86°
2026-05-06 15:56 44.48540 14.30635 36962 ft 488 kts 86°
2026-05-06 15:57 44.49277 14.40075 36951 ft 487 kts 86°
2026-05-06 15:57 44.49999 14.49426 36966 ft 486 kts 86°
2026-05-06 15:58 44.50719 14.58844 36961 ft 486 kts 86°
2026-05-06 15:58 44.51431 14.68271 36969 ft 486 kts 86°
2026-05-06 15:59 44.52136 14.77703 36973 ft 487 kts 86°
2026-05-06 15:59 44.52833 14.87141 36986 ft 487 kts 86°
2026-05-06 16:00 44.53524 14.96597 36980 ft 488 kts 86°
2026-05-06 16:00 44.54204 15.06010 36976 ft 489 kts 86°
2026-05-06 16:01 44.54886 15.15561 36973 ft 489 kts 86°
2026-05-06 16:01 44.55551 15.24996 36974 ft 489 kts 86°
2026-05-06 16:02 44.56212 15.34487 36994 ft 489 kts 86°
2026-05-06 16:02 44.56867 15.43997 36977 ft 489 kts 87°
2026-05-06 16:03 44.57514 15.53493 36988 ft 490 kts 87°
2026-05-06 16:03 44.58045 15.63022 36963 ft 489 kts 89°
2026-05-06 16:04 44.58490 15.72540 36982 ft 489 kts 89°
2026-05-06 16:04 44.58933 15.82060 36983 ft 489 kts 89°
2026-05-06 16:05 44.59385 15.91588 36959 ft 489 kts 89°
2026-05-06 16:05 44.59832 16.01046 36969 ft 489 kts 89°
2026-05-06 16:06 44.60275 16.10565 36972 ft 488 kts 89°
2026-05-06 16:06 44.60708 16.20069 36963 ft 488 kts 89°
2026-05-06 16:07 44.61133 16.29573 36975 ft 488 kts 89°
2026-05-06 16:07 44.61550 16.39084 36946 ft 488 kts 89°
2026-05-06 16:08 44.61959 16.48586 36952 ft 486 kts 89°
2026-05-06 16:08 44.62359 16.58061 36953 ft 485 kts 89°
2026-05-06 16:09 44.62750 16.67492 36951 ft 483 kts 89°
2026-05-06 16:09 44.63129 16.76860 36944 ft 482 kts 89°
2026-05-06 16:10 44.63503 16.86244 36931 ft 481 kts 89°
2026-05-06 16:10 44.63866 16.95607 36931 ft 479 kts 89°
2026-05-06 16:11 44.64222 17.04938 36930 ft 478 kts 89°
2026-05-06 16:11 44.64568 17.14249 36928 ft 478 kts 89°
2026-05-06 16:12 44.64908 17.23572 36922 ft 478 kts 89°
2026-05-06 16:12 44.65240 17.32889 36928 ft 478 kts 89°
2026-05-06 16:13 44.65564 17.42216 36927 ft 478 kts 90°
2026-05-06 16:13 44.65882 17.51563 36921 ft 479 kts 90°
2026-05-06 16:14 44.66190 17.60859 36908 ft 479 kts 90°
2026-05-06 16:14 44.66493 17.70205 36907 ft 479 kts 90°
2026-05-06 16:15 44.66788 17.79564 36916 ft 479 kts 90°
2026-05-06 16:15 44.67075 17.88913 36912 ft 479 kts 90°
2026-05-06 16:16 44.67355 17.98282 36907 ft 479 kts 90°
2026-05-06 16:16 44.67627 18.07641 36906 ft 479 kts 90°
2026-05-06 16:17 44.67892 18.17005 36912 ft 479 kts 90°
2026-05-06 16:17 44.68149 18.26341 36915 ft 480 kts 90°
2026-05-06 16:18 44.68399 18.35701 36912 ft 480 kts 90°
2026-05-06 16:18 44.68681 18.45080 36900 ft 481 kts 89°
2026-05-06 16:19 44.69070 18.54458 36905 ft 480 kts 88°
2026-05-06 16:19 44.69468 18.63838 36890 ft 480 kts 88°
2026-05-06 16:20 44.69844 18.73209 36902 ft 479 kts 88°
2026-05-06 16:20 44.70202 18.82573 36899 ft 479 kts 88°
2026-05-06 16:21 44.70550 18.91920 36909 ft 479 kts 88°
2026-05-06 16:21 44.70888 19.01203 36900 ft 478 kts 88°
2026-05-06 16:22 44.71221 19.10552 36904 ft 478 kts 89°
2026-05-06 16:22 44.71546 19.19888 36898 ft 478 kts 89°
2026-05-06 16:23 44.71864 19.29219 36901 ft 478 kts 88°
2026-05-06 16:23 44.72175 19.38559 36898 ft 478 kts 88°
2026-05-06 16:24 44.72477 19.47894 36901 ft 478 kts 88°
2026-05-06 16:24 44.72772 19.57247 36898 ft 479 kts 88°
2026-05-06 16:25 44.73057 19.66549 36905 ft 479 kts 88°
2026-05-06 16:25 44.73338 19.75928 36904 ft 479 kts 88°
2026-05-06 16:26 44.73611 19.85308 36907 ft 480 kts 88°
2026-05-06 16:26 44.73877 19.94687 36910 ft 480 kts 88°
2026-05-06 16:27 44.74134 20.04065 36912 ft 480 kts 88°
2026-05-06 16:27 44.74343 20.11866 36904 ft 480 kts 88°
2026-05-06 16:28 44.74587 20.21242 36919 ft 479 kts 88°
2026-05-06 16:28 44.74824 20.30598 36911 ft 479 kts 88°
2026-05-06 16:29 44.75050 20.39966 36915 ft 479 kts 88°
2026-05-06 16:29 44.75269 20.49327 36914 ft 479 kts 88°
2026-05-06 16:30 44.75446 20.57106 36910 ft 479 kts 88°
2026-05-06 16:30 44.75687 20.68051 36920 ft 479 kts 88°
2026-05-06 16:31 44.75883 20.77366 36926 ft 479 kts 88°
2026-05-06 16:31 44.76072 20.86737 36922 ft 479 kts 88°
2026-05-06 16:32 44.76254 20.96091 36922 ft 478 kts 88°
2026-05-06 16:32 44.76428 21.05453 36922 ft 478 kts 88°
2026-05-06 16:33 44.76595 21.14809 36923 ft 478 kts 88°
2026-05-06 16:34 44.76830 21.28838 36924 ft 478 kts 88°
2026-05-06 16:34 44.76978 21.38196 36925 ft 478 kts 88°
2026-05-06 16:35 44.77118 21.47541 36933 ft 478 kts 88°
2026-05-06 16:35 44.77246 21.56892 36929 ft 478 kts 88°
2026-05-06 16:36 44.77340 21.66192 36936 ft 478 kts 88°
2026-05-06 16:36 44.77420 21.75555 36931 ft 478 kts 88°
2026-05-06 16:37 44.77497 21.84908 36939 ft 478 kts 88°
2026-05-06 16:37 44.77568 21.94261 36946 ft 477 kts 88°
2026-05-06 16:38 44.77632 22.03601 36955 ft 477 kts 88°
2026-05-06 16:38 44.77688 22.12952 36946 ft 478 kts 88°
2026-05-06 16:39 44.77736 22.22304 36946 ft 478 kts 88°
2026-05-06 16:39 44.77777 22.31594 36960 ft 477 kts 88°
2026-05-06 16:40 44.77810 22.40932 36940 ft 477 kts 88°
2026-05-06 16:40 44.77836 22.50289 36945 ft 477 kts 88°
2026-05-06 16:41 44.77854 22.59628 36949 ft 477 kts 88°
2026-05-06 16:41 44.77865 22.68981 36948 ft 477 kts 88°
2026-05-06 16:42 44.77868 22.78338 36951 ft 477 kts 88°
2026-05-06 16:42 44.77863 22.87667 36945 ft 477 kts 88°
2026-05-06 16:43 44.77851 22.96939 36949 ft 477 kts 88°
2026-05-06 16:43 44.77831 23.06278 36946 ft 476 kts 88°
2026-05-06 16:44 44.77803 23.15594 36957 ft 476 kts 88°
2026-05-06 16:44 44.77349 23.24914 36956 ft 478 kts 95°
2026-05-06 16:45 44.76553 23.34207 36824 ft 481 kts 95°
2026-05-06 16:45 44.76144 23.38916 36213 ft 486 kts 95°
2026-05-06 16:45 44.75747 23.43618 35576 ft 484 kts 95°
2026-05-06 16:45 44.75361 23.48328 34844 ft 484 kts 94°
2026-05-06 16:46 44.74984 23.53040 34110 ft 485 kts 94°
2026-05-06 16:46 44.74610 23.57772 33234 ft 485 kts 94°
2026-05-06 16:46 44.74239 23.62448 32370 ft 477 kts 94°
2026-05-06 16:46 44.73873 23.67048 31628 ft 469 kts 94°
2026-05-06 16:47 44.73514 23.71539 31122 ft 457 kts 94°
2026-05-06 16:47 44.73159 23.75939 30566 ft 449 kts 94°
2026-05-06 16:47 44.72814 23.80209 30030 ft 442 kts 94°
2026-05-06 16:47 44.72468 23.84470 29409 ft 436 kts 94°
2026-05-06 16:48 44.72123 23.88693 28831 ft 436 kts 95°
2026-05-06 16:48 44.71773 23.92992 28272 ft 447 kts 95°
2026-05-06 16:48 44.71416 23.97340 27662 ft 446 kts 95°
2026-05-06 16:48 44.71061 24.01624 27064 ft 436 kts 95°
2026-05-06 16:49 44.70711 24.05815 26493 ft 426 kts 95°
2026-05-06 16:49 44.70366 24.09920 25951 ft 421 kts 95°
2026-05-06 16:49 44.70024 24.13996 25406 ft 418 kts 95°
2026-05-06 16:49 44.69682 24.18049 24861 ft 416 kts 95°
2026-05-06 16:50 44.69341 24.22079 24290 ft 414 kts 96°
2026-05-06 16:50 44.69000 24.26088 23719 ft 412 kts 96°
2026-05-06 16:50 44.68662 24.30049 23085 ft 410 kts 96°
2026-05-06 16:50 44.68320 24.34038 22470 ft 407 kts 96°
2026-05-06 16:51 44.67986 24.37913 21891 ft 403 kts 96°
2026-05-06 16:51 44.67650 24.41805 21318 ft 399 kts 96°
2026-05-06 16:51 44.67315 24.45662 20756 ft 396 kts 96°
2026-05-06 16:51 44.66982 24.49481 20200 ft 392 kts 96°
2026-05-06 16:52 44.66650 24.53267 19652 ft 389 kts 96°
2026-05-06 16:52 44.66319 24.57035 19098 ft 387 kts 96°
2026-05-06 16:52 44.65990 24.60776 18523 ft 385 kts 97°
2026-05-06 16:52 44.65660 24.64499 17931 ft 383 kts 97°
2026-05-06 16:53 44.65333 24.68193 17332 ft 379 kts 97°
2026-05-06 16:53 44.65007 24.71855 16761 ft 376 kts 97°
2026-05-06 16:53 44.64682 24.75486 16204 ft 372 kts 97°
2026-05-06 16:53 44.64359 24.79071 15659 ft 369 kts 97°
2026-05-06 16:54 44.64037 24.82633 15117 ft 366 kts 97°
2026-05-06 16:54 44.63717 24.86166 14582 ft 363 kts 97°
2026-05-06 16:54 44.63398 24.89675 14034 ft 361 kts 98°
2026-05-06 16:54 44.63080 24.93168 13453 ft 360 kts 97°
2026-05-06 16:55 44.62763 24.96636 12874 ft 356 kts 97°
2026-05-06 16:55 44.62447 25.00075 12323 ft 353 kts 97°
2026-05-06 16:55 44.62134 25.03476 11780 ft 350 kts 97°
2026-05-06 16:55 44.61823 25.06845 11266 ft 347 kts 97°
2026-05-06 16:56 44.61520 25.10114 11058 ft 338 kts 97°
2026-05-06 16:56 44.61219 25.13348 10987 ft 328 kts 97°
2026-05-06 16:56 44.60931 25.16430 10951 ft 310 kts 97°
2026-05-06 16:56 44.60656 25.19372 10565 ft 299 kts 97°
2026-05-06 16:57 44.60387 25.22246 10094 ft 293 kts 97°
2026-05-06 16:57 44.60127 25.25011 9770 ft 283 kts 97°
2026-05-06 16:57 44.59874 25.27693 9449 ft 272 kts 97°
2026-05-06 16:57 44.59629 25.30289 9090 ft 265 kts 97°
2026-05-06 16:58 44.59390 25.32807 8788 ft 258 kts 97°
2026-05-06 16:58 44.59153 25.35297 8468 ft 259 kts 97°
2026-05-06 16:58 44.58912 25.37832 8174 ft 266 kts 97°
2026-05-06 16:58 44.58663 25.40447 7856 ft 274 kts 97°
2026-05-06 16:59 44.58406 25.43137 7378 ft 281 kts 97°
2026-05-06 16:59 44.58149 25.45808 6968 ft 277 kts 97°
2026-05-06 16:59 44.57892 25.48483 6567 ft 271 kts 97°
2026-05-06 16:59 44.57642 25.51076 6171 ft 266 kts 97°
2026-05-06 17:00 44.57394 25.53640 5863 ft 264 kts 97°
2026-05-06 17:00 44.57148 25.56178 5562 ft 262 kts 97°
2026-05-06 17:00 44.56903 25.58702 5258 ft 260 kts 97°
2026-05-06 17:00 44.56663 25.61170 4965 ft 258 kts 97°
2026-05-06 17:01 44.56423 25.63633 4763 ft 248 kts 98°
2026-05-06 17:01 44.56192 25.66002 4617 ft 240 kts 98°
2026-05-06 17:01 44.55968 25.68288 4519 ft 236 kts 98°
2026-05-06 17:01 44.55743 25.70575 4416 ft 238 kts 97°
2026-05-06 17:02 44.55515 25.72903 4268 ft 244 kts 98°
2026-05-06 17:02 44.55282 25.75277 4029 ft 246 kts 98°
2026-05-06 17:02 44.55048 25.77643 3762 ft 245 kts 99°
2026-05-06 17:02 44.54813 25.80011 3429 ft 244 kts 99°
2026-05-06 17:03 44.54591 25.82378 3074 ft 246 kts 95°
2026-05-06 17:03 44.54699 25.84744 2839 ft 243 kts 84°
2026-05-06 17:03 44.54920 25.87014 2803 ft 230 kts 84°
2026-05-06 17:03 44.55097 25.89201 2613 ft 221 kts 86°
2026-05-06 17:04 44.55250 25.91274 2347 ft 203 kts 86°
2026-05-06 17:04 44.55388 25.93156 2119 ft 186 kts 86°
2026-05-06 17:04 44.55514 25.94875 1903 ft 168 kts 87°
2026-05-06 17:04 44.55629 25.96421 1707 ft 151 kts 88°
2026-05-06 17:05 44.55734 25.97844 1542 ft 144 kts 87°
2026-05-06 17:05 44.55835 25.99222 1423 ft 141 kts 87°
2026-05-06 17:05 44.55938 26.00594 1214 ft 137 kts 87°
2026-05-06 17:05 44.56035 26.01920 1064 ft 138 kts 85°
2026-05-06 17:06 44.56133 26.03235 909 ft 134 kts 85°
2026-05-06 17:06 44.56221 26.04536 717 ft 133 kts 84°
2026-05-06 17:06 44.56323 26.05771 581 ft 125 kts 86°
2026-05-06 17:06 44.56406 26.06953 420 ft 118 kts 86°
2026-05-06 17:07 44.56500 26.08095 338 ft 120 kts 86°
2026-05-06 17:07 44.56577 26.09196 320 ft 97 kts 84°
2026-05-06 17:07 44.56633 26.09933 321 ft 57 kts 84°
2026-05-06 17:07 44.56673 26.10427 322 ft 37 kts 83°
2026-05-06 17:08 44.56698 26.10714 322 ft 22 kts 62°
2026-05-06 17:08 44.56813 26.10757 320 ft 13 kts 353°
2026-05-06 17:08 44.56842 26.10752 321 ft 0 kts 353°
2026-05-06 17:10 44.56845 26.10752 321 ft 2 kts 352°
2026-05-06 17:10 44.56897 26.10743 321 ft 13 kts 354°
2026-05-06 17:10 44.56996 26.10705 321 ft 16 kts 319°
2026-05-06 17:10 44.57059 26.10569 321 ft 16 kts 290°
2026-05-06 17:11 44.57057 26.10408 321 ft 18 kts 263°
2026-05-06 17:11 44.57046 26.10229 321 ft 19 kts 265°
2026-05-06 17:11 44.57031 26.10030 321 ft 21 kts 264°
2026-05-06 17:11 44.57014 26.09819 321 ft 20 kts 264°
2026-05-06 17:12 44.56998 26.09617 321 ft 22 kts 263°
2026-05-06 17:12 44.56985 26.09437 321 ft 18 kts 265°
2026-05-06 17:12 44.56970 26.09257 321 ft 19 kts 264°
2026-05-06 17:12 44.56957 26.09085 321 ft 14 kts 264°
2026-05-06 17:13 44.56946 26.08941 321 ft 15 kts 265°
2026-05-06 17:13 44.56935 26.08786 321 ft 17 kts 264°
2026-05-06 17:13 44.56922 26.08624 321 ft 16 kts 261°
2026-05-06 17:13 44.56955 26.08547 321 ft 15 kts 346°
2026-05-06 17:14 44.57088 26.08526 321 ft 15 kts 355°
2026-05-06 17:14 44.57170 26.08512 321 ft 1 kts 353°
2026-05-06 17:14 44.57174 26.08511 321 ft 2 kts 353°
2026-05-06 17:15 44.57193 26.08510 322 ft 7 kts 358°
2026-05-06 17:15 44.57230 26.08434 322 ft 15 kts 264°
2026-05-06 17:15 44.57206 26.08331 321 ft 10 kts 224°
2026-05-06 17:15 44.57163 26.08281 321 ft 6 kts 217°
2026-05-06 17:16 44.57137 26.08252 321 ft 3 kts 219°
2026-05-06 17:16 44.57130 26.08245 321 ft 1 kts 219°
2026-05-06 17:16 44.57121 26.08233 320 ft 1 kts 219°
2026-05-06 17:16 44.57116 26.08228 321 ft 0 kts 219°